When you browse on this site, cookies collect data to enhance your experience and personalize the content and advertising you see.
Visit our Privacy Policy to learn more. By continuing to use the site, you agree to this use of cookies and data.
  • In Österreich
  • Länderverzeichnis
  • Für 7 Tage
  • Wassertemperatur
  • Satellitenkarten
  • Wetterkarte
  • News
  • Widgets
  • user-avatar
    Anmelden

    Stündliche Wetter Kwiecie

    Heute, 15 Dezember, Samstag

    Zeit Temperatur Niederschläge Wind Luftdruck Luftfeuchtigkeit
    00:00 -3°C° 0 mm 2 m/S 765 mmHg 77%
    01:00 -3°C° 0 mm 2 m/S 765 mmHg 81%
    02:00 -3°C° 0 mm 2 m/S 765 mmHg 81%
    03:00 -3°C° 0 mm 2 m/S 765 mmHg 82%
    04:00 -2°C° 0 mm 2 m/S 765 mmHg 83%
    05:00 -3°C° 0 mm 2 m/S 765 mmHg 85%
    06:00 -3°C° 0 mm 2 m/S 765 mmHg 86%
    07:00 0°C° 0 mm 1 m/S 765 mmHg 90%
    08:00 -2°C° 0 mm 2 m/S 765 mmHg 89%
    09:00 -2°C° 0 mm 2 m/S 765 mmHg 88%
    10:00 -1°C° 0 mm 2 m/S 766 mmHg 86%
    11:00 -1°C° 0 mm 2 m/S 765 mmHg 84%
    12:00 +1°C° 0 mm 2 m/S 765 mmHg 82%
    13:00 +1°C° 0 mm 2 m/S 765 mmHg 81%
    14:00 +1°C° 0 mm 2 m/S 764 mmHg 83%
    15:00 -1°C° 0 mm 2 m/S 764 mmHg 85%
    16:00 -1°C° 0 mm 2 m/S 764 mmHg 87%
    17:00 -1°C° 0 mm 2 m/S 764 mmHg 88%
    18:00 -2°C° 0 mm 2 m/S 764 mmHg 89%
    19:00 -2°C° 0 mm 2 m/S 764 mmHg 89%
    20:00 -2°C° 0 mm 2 m/S 763 mmHg 89%
    21:00 -2°C° 0 mm 2 m/S 763 mmHg 89%
    22:00 -2°C° 0 mm 2 m/S 763 mmHg 89%
    23:00 -2°C° 0 mm 2 m/S 762 mmHg 89%

    Morgen, 16 Dezember, Sonntag

    Zeit Temperatur Niederschläge Wind Luftdruck Luftfeuchtigkeit
    00:00 -4°C° 0 mm 3 m/S 762 mmHg 90%
    01:00 -4°C° 0 mm 3 m/S 761 mmHg 91%
    02:00 -4°C° 0 mm 3 m/S 761 mmHg 90%
    03:00 -4°C° 0 mm 3 m/S 760 mmHg 90%
    04:00 -4°C° 0 mm 3 m/S 760 mmHg 90%
    05:00 -4°C° 0 mm 3 m/S 759 mmHg 88%
    06:00 -4°C° 0 mm 3 m/S 759 mmHg 86%
    07:00 -4°C° 0 mm 3 m/S 759 mmHg 84%
    08:00 -2°C° 0 mm 3 m/S 758 mmHg 82%
    09:00 -2°C° 0 mm 3 m/S 758 mmHg 81%
    10:00 -2°C° 0 mm 3 m/S 758 mmHg 79%
    11:00 -1°C° 0 mm 3 m/S 757 mmHg 77%
    12:00 -1°C° 0 mm 3 m/S 757 mmHg 74%
    13:00 -1°C° 0 mm 3 m/S 757 mmHg 71%
    14:00 -2°C° 0 mm 3 m/S 756 mmHg 74%
    15:00 -2°C° 0 mm 2 m/S 756 mmHg 77%
    16:00 -3°C° 0 mm 2 m/S 756 mmHg 79%
    17:00 -3°C° 0 mm 2 m/S 756 mmHg 80%
    18:00 -4°C° 0 mm 3 m/S 756 mmHg 80%
    19:00 -4°C° 0 mm 3 m/S 756 mmHg 81%
    20:00 -4°C° 0 mm 3 m/S 756 mmHg 80%
    21:00 -2°C° 0 mm 3 m/S 756 mmHg 79%
    22:00 -2°C° 0 mm 3 m/S 756 mmHg 77%
    23:00 -2°C° 0 mm 2 m/S 756 mmHg 77%

    übermorgen, 17 Dezember, Montag

    Zeit Temperatur Niederschläge Wind Luftdruck Luftfeuchtigkeit
    00:00 -2°C° 0 mm 2 m/S 756 mmHg 78%
    01:00 -2°C° 0 mm 2 m/S 756 mmHg 78%
    02:00 -2°C° 0.1 mm 2 m/S 756 mmHg 79%
    03:00 -2°C° 0.1 mm 2 m/S 756 mmHg 81%
    04:00 -2°C° 0.1 mm 2 m/S 756 mmHg 83%
    05:00 -2°C° 0 mm 2 m/S 757 mmHg 85%
    06:00 -2°C° 0 mm 2 m/S 757 mmHg 86%
    07:00 -2°C° 0 mm 2 m/S 757 mmHg 88%
    08:00 -1°C° 0 mm 2 m/S 757 mmHg 88%
    09:00 -1°C° 0 mm 2 m/S 758 mmHg 88%
    10:00 -1°C° 0 mm 3 m/S 759 mmHg 88%
    11:00 0°C° 0 mm 3 m/S 759 mmHg 88%
    12:00 +1°C° 0 mm 2 m/S 759 mmHg 88%
    13:00 +2°C° 0 mm 2 m/S 759 mmHg 88%
    14:00 +1°C° 0 mm 2 m/S 760 mmHg 90%
    15:00 +1°C° 0 mm 2 m/S 760 mmHg 92%
    16:00 +2°C° 0 mm 1 m/S 760 mmHg 94%
    17:00 +1°C° 0 mm 1 m/S 761 mmHg 95%
    18:00 +1°C° 0 mm 1 m/S 761 mmHg 95%
    19:00 +1°C° 0 mm 1 m/S 762 mmHg 95%
    20:00 +1°C° 0 mm 1 m/S 762 mmHg 95%
    21:00 +1°C° 0 mm 1 m/S 762 mmHg 94%
    22:00 +1°C° 0 mm 1 m/S 763 mmHg 94%
    23:00 +1°C° 0.1 mm 1 m/S 763 mmHg 94%

    18 Dezember, Dienstag

    Zeit Temperatur Niederschläge Wind Luftdruck Luftfeuchtigkeit
    00:00 +1°C° 0.1 mm 1 m/S 763 mmHg 94%
    01:00 +1°C° 0.1 mm 1 m/S 764 mmHg 94%
    02:00 +1°C° 0.2 mm 1 m/S 764 mmHg 94%
    03:00 +1°C° 0.2 mm 1 m/S 764 mmHg 94%
    04:00 +2°C° 0.2 mm 1 m/S 764 mmHg 94%
    05:00 +1°C° 0.1 mm 1 m/S 764 mmHg 95%
    06:00 +1°C° 0.1 mm 1 m/S 764 mmHg 95%
    07:00 +1°C° 0.1 mm 1 m/S 765 mmHg 95%
    08:00 +1°C° 0 mm 1 m/S 765 mmHg 95%
    09:00 +2°C° 0 mm 1 m/S 765 mmHg 94%
    10:00 +2°C° 0 mm 1 m/S 765 mmHg 94%
    11:00 +2°C° 0 mm 1 m/S 765 mmHg 93%
    12:00 +3°C° 0 mm 1 m/S 765 mmHg 93%
    13:00 +3°C° 0 mm 1 m/S 765 mmHg 92%
    14:00 +3°C° 0 mm 1 m/S 765 mmHg 93%
    15:00 +2°C° 0 mm 1 m/S 765 mmHg 94%
    16:00 +2°C° 0 mm 1 m/S 765 mmHg 96%
    17:00 +2°C° 0 mm 1 m/S 765 mmHg 96%
    18:00 +2°C° 0 mm 1 m/S 765 mmHg 96%
    19:00 +1°C° 0 mm 2 m/S 765 mmHg 96%
    20:00 +1°C° 0 mm 2 m/S 765 mmHg 96%
    21:00 +1°C° 0 mm 2 m/S 765 mmHg 96%
    22:00 +1°C° 0 mm 2 m/S 765 mmHg 96%
    23:00 -1°C° 0 mm 2 m/S 765 mmHg 95%

    19 Dezember, Mittwoch

    Zeit Temperatur Niederschläge Wind Luftdruck Luftfeuchtigkeit
    00:00 -1°C° 0 mm 3 m/S 764 mmHg 95%
    01:00 -1°C° 0 mm 3 m/S 764 mmHg 95%
    02:00 -2°C° 0 mm 3 m/S 764 mmHg 94%
    03:00 -3°C° 0 mm 4 m/S 764 mmHg 93%
    04:00 -3°C° 0 mm 4 m/S 763 mmHg 92%
    05:00 -3°C° 0 mm 4 m/S 763 mmHg 90%
    06:00 -3°C° 0 mm 4 m/S 763 mmHg 89%
    07:00 -3°C° 0 mm 4 m/S 763 mmHg 88%
    08:00 -2°C° 0 mm 4 m/S 763 mmHg 86%
    09:00 -2°C° 0 mm 4 m/S 762 mmHg 83%
    10:00 -2°C° 0 mm 5 m/S 762 mmHg 81%
    11:00 -1°C° 0 mm 4 m/S 762 mmHg 79%
    12:00 -1°C° 0 mm 4 m/S 762 mmHg 77%
    13:00 0°C° 0 mm 4 m/S 761 mmHg 76%
    14:00 -1°C° 0 mm 4 m/S 761 mmHg 78%
    15:00 -2°C° 0 mm 4 m/S 761 mmHg 80%
    16:00 -2°C° 0 mm 4 m/S 760 mmHg 82%
    17:00 -2°C° 0 mm 4 m/S 760 mmHg 82%
    18:00 -2°C° 0 mm 4 m/S 760 mmHg 83%
    19:00 -2°C° 0 mm 4 m/S 760 mmHg 83%
    20:00 -2°C° 0 mm 4 m/S 760 mmHg 83%
    21:00 -2°C° 0 mm 4 m/S 760 mmHg 83%
    22:00 -2°C° 0 mm 4 m/S 760 mmHg 83%
    23:00 -2°C° 0 mm 4 m/S 760 mmHg 83%

    20 Dezember, Donnerstag

    Zeit Temperatur Niederschläge Wind Luftdruck Luftfeuchtigkeit
    00:00 -1°C° 0 mm 3 m/S 760 mmHg 83%
    01:00 -1°C° 0 mm 3 m/S 759 mmHg 83%
    02:00 -1°C° 0 mm 3 m/S 759 mmHg 82%
    03:00 -1°C° 0 mm 3 m/S 759 mmHg 82%
    04:00 -1°C° 0 mm 3 m/S 759 mmHg 82%
    05:00 -1°C° 0 mm 3 m/S 759 mmHg 82%
    06:00 -1°C° 0 mm 3 m/S 759 mmHg 82%
    07:00 -2°C° 0 mm 3 m/S 759 mmHg 83%
    08:00 -1°C° 0 mm 3 m/S 759 mmHg 82%
    09:00 -1°C° 0 mm 3 m/S 759 mmHg 80%
    10:00 -1°C° 0 mm 3 m/S 760 mmHg 79%
    11:00 +1°C° 0 mm 2 m/S 759 mmHg 78%
    12:00 +1°C° 0 mm 2 m/S 759 mmHg 78%
    13:00 +1°C° 0 mm 2 m/S 759 mmHg 77%
    14:00 +1°C° 0 mm 2 m/S 759 mmHg 79%
    15:00 -1°C° 0 mm 2 m/S 759 mmHg 82%
    16:00 -1°C° 0 mm 2 m/S 759 mmHg 84%
    17:00 -1°C° 0 mm 2 m/S 759 mmHg 85%
    18:00 -1°C° 0 mm 2 m/S 759 mmHg 86%
    19:00 -1°C° 0 mm 2 m/S 760 mmHg 87%
    20:00 -1°C° 0.3 mm 2 m/S 760 mmHg 89%
    21:00 -1°C° 0.3 mm 2 m/S 760 mmHg 91%
    22:00 +1°C° 0.3 mm 2 m/S 760 mmHg 93%
    23:00 +1°C° 0.2 mm 2 m/S 761 mmHg 94%
    Mehr zeigen